When you browse on this site, cookies collect data to enhance your experience and personalize the content and advertising you see.
Visit our Privacy Policy to learn more. By continuing to use the site, you agree to this use of cookies and data.
  • In Portugal
  • List of Countries
  • For 7 days
  • Water Temperature
  • Satellite Maps
  • Weather Map
  • Weather Widgets
  • user-avatar
    Login

    Hourly Weather Pernik

    Today, 23 April, Tuesday

    Time Temperature Precipitation Wind Pressure Humidity
    00:00 +8°C° 0.2 mm 2 mps 692 mmHg 79%
    01:00 +8°C° 0.2 mm 2 mps 692 mmHg 81%
    02:00 +8°C° 0 mm 2 mps 693 mmHg 82%
    03:00 +7°C° 0.6 mm 2 mps 693 mmHg 84%
    04:00 +7°C° 0.6 mm 2 mps 693 mmHg 85%
    05:00 +6°C° 0.6 mm 2 mps 693 mmHg 87%
    06:00 +7°C° 0.9 mm 2 mps 693 mmHg 86%
    07:00 +7°C° 0.9 mm 2 mps 693 mmHg 85%
    08:00 +7°C° 0.9 mm 2 mps 693 mmHg 84%
    09:00 +8°C° 0.3 mm 3 mps 693 mmHg 79%
    10:00 +9°C° 0.3 mm 3 mps 694 mmHg 75%
    11:00 +10°C° 0.3 mm 3 mps 694 mmHg 70%
    12:00 +12°C° 0.1 mm 3 mps 694 mmHg 65%
    13:00 +13°C° 0.1 mm 4 mps 694 mmHg 60%
    14:00 +14°C° 0.1 mm 4 mps 694 mmHg 55%
    15:00 +14°C° 0 mm 4 mps 694 mmHg 55%
    16:00 +15°C° 0 mm 5 mps 694 mmHg 55%
    17:00 +15°C° 0 mm 5 mps 693 mmHg 55%
    18:00 +13°C° 0 mm 4 mps 693 mmHg 62%
    19:00 +11°C° 0 mm 4 mps 693 mmHg 68%
    20:00 +9°C° 0 mm 3 mps 693 mmHg 75%
    21:00 +8°C° 0 mm 3 mps 693 mmHg 78%
    22:00 +7°C° 0 mm 2 mps 693 mmHg 80%
    23:00 +6°C° 0 mm 2 mps 693 mmHg 83%

    Tomorrow, 24 April, Wednesday

    Time Temperature Precipitation Wind Pressure Humidity
    00:00 +6°C° 0 mm 2 mps 693 mmHg 82%
    01:00 +6°C° 0 mm 2 mps 693 mmHg 80%
    02:00 +5°C° 0 mm 2 mps 694 mmHg 79%
    03:00 +5°C° 0 mm 2 mps 694 mmHg 78%
    04:00 +6°C° 0 mm 1 mps 694 mmHg 77%
    05:00 +6°C° 0 mm 1 mps 694 mmHg 76%
    06:00 +8°C° 0 mm 1 mps 694 mmHg 71%
    07:00 +9°C° 0 mm 1 mps 695 mmHg 66%
    08:00 +11°C° 0 mm 1 mps 695 mmHg 61%
    09:00 +14°C° 0 mm 2 mps 696 mmHg 56%
    10:00 +16°C° 0 mm 2 mps 696 mmHg 51%
    11:00 +18°C° 0 mm 2 mps 697 mmHg 45%
    12:00 +19°C° 0 mm 2 mps 696 mmHg 43%
    13:00 +20°C° 0 mm 2 mps 696 mmHg 40%
    14:00 +21°C° 0 mm 2 mps 696 mmHg 37%
    15:00 +21°C° 0 mm 2 mps 696 mmHg 39%
    16:00 +21°C° 0 mm 2 mps 696 mmHg 41%
    17:00 +20°C° 0 mm 2 mps 696 mmHg 43%
    18:00 +18°C° 0 mm 2 mps 695 mmHg 50%
    19:00 +16°C° 0 mm 2 mps 695 mmHg 58%
    20:00 +14°C° 0 mm 2 mps 695 mmHg 66%
    21:00 +13°C° 0 mm 1 mps 695 mmHg 71%
    22:00 +12°C° 0 mm 1 mps 695 mmHg 77%
    23:00 +11°C° 0 mm 1 mps 695 mmHg 82%

    Day after tomorrow, 25 April, Thursday

    Time Temperature Precipitation Wind Pressure Humidity
    00:00 +10°C° 0 mm 1 mps 695 mmHg 83%
    01:00 +10°C° 0 mm 1 mps 695 mmHg 84%
    02:00 +10°C° 0 mm 1 mps 695 mmHg 85%
    03:00 +9°C° 0 mm 1 mps 695 mmHg 85%
    04:00 +9°C° 0 mm 1 mps 695 mmHg 85%
    05:00 +9°C° 0 mm 1 mps 695 mmHg 85%
    06:00 +11°C° 0 mm 1 mps 696 mmHg 78%
    07:00 +12°C° 0 mm 1 mps 696 mmHg 71%
    08:00 +14°C° 0 mm 1 mps 697 mmHg 64%
    09:00 +16°C° 0 mm 1 mps 697 mmHg 57%
    10:00 +20°C° 0 mm 1 mps 698 mmHg 51%
    11:00 +22°C° 0 mm 1 mps 698 mmHg 45%
    12:00 +23°C° 0 mm 2 mps 698 mmHg 42%
    13:00 +23°C° 0 mm 2 mps 698 mmHg 40%
    14:00 +24°C° 0 mm 2 mps 697 mmHg 37%
    15:00 +24°C° 0 mm 2 mps 697 mmHg 40%
    16:00 +23°C° 0 mm 2 mps 696 mmHg 42%
    17:00 +23°C° 0 mm 2 mps 696 mmHg 45%
    18:00 +20°C° 0 mm 2 mps 696 mmHg 54%
    19:00 +17°C° 0 mm 2 mps 695 mmHg 62%
    20:00 +15°C° 0 mm 2 mps 695 mmHg 71%
    21:00 +15°C° 0 mm 2 mps 695 mmHg 75%
    22:00 +14°C° 0 mm 1 mps 695 mmHg 79%
    23:00 +13°C° 0 mm 1 mps 695 mmHg 83%

    26 April, Friday

    Time Temperature Precipitation Wind Pressure Humidity
    00:00 +13°C° 0 mm 1 mps 695 mmHg 85%
    01:00 +12°C° 0 mm 1 mps 695 mmHg 86%
    02:00 +12°C° 0 mm 1 mps 695 mmHg 88%
    03:00 +12°C° 0 mm 1 mps 695 mmHg 89%
    04:00 +11°C° 0 mm 1 mps 694 mmHg 90%
    05:00 +11°C° 0 mm 1 mps 694 mmHg 91%
    06:00 +13°C° 0 mm 1 mps 695 mmHg 85%
    07:00 +14°C° 0 mm 1 mps 695 mmHg 79%
    08:00 +16°C° 0 mm 1 mps 695 mmHg 73%
    09:00 +19°C° 0 mm 1 mps 696 mmHg 64%
    10:00 +21°C° 0 mm 1 mps 696 mmHg 56%
    11:00 +22°C° 0 mm 1 mps 696 mmHg 48%
    12:00 +23°C° 0 mm 1 mps 696 mmHg 45%
    13:00 +24°C° 0 mm 1 mps 696 mmHg 42%
    14:00 +25°C° 0 mm 1 mps 695 mmHg 39%
    15:00 +24°C° 0 mm 2 mps 695 mmHg 41%
    16:00 +24°C° 0 mm 2 mps 695 mmHg 43%
    17:00 +23°C° 0 mm 2 mps 694 mmHg 45%
    18:00 +20°C° 0 mm 2 mps 694 mmHg 54%
    19:00 +18°C° 0 mm 2 mps 693 mmHg 63%
    20:00 +16°C° 0 mm 2 mps 693 mmHg 71%
    21:00 +15°C° 0 mm 2 mps 693 mmHg 76%
    22:00 +14°C° 0 mm 2 mps 693 mmHg 81%
    23:00 +13°C° 0 mm 1 mps 693 mmHg 85%

    27 April, Saturday

    Time Temperature Precipitation Wind Pressure Humidity
    00:00 +13°C° 0 mm 1 mps 693 mmHg 87%
    01:00 +12°C° 0 mm 1 mps 693 mmHg 89%
    02:00 +12°C° 0 mm 1 mps 692 mmHg 91%
    03:00 +12°C° 0 mm 1 mps 692 mmHg 91%
    04:00 +11°C° 0 mm 1 mps 692 mmHg 92%
    05:00 +11°C° 0 mm 1 mps 692 mmHg 92%
    06:00 +13°C° 0 mm 1 mps 692 mmHg 85%
    07:00 +14°C° 0 mm 1 mps 692 mmHg 79%
    08:00 +16°C° 0 mm 1 mps 692 mmHg 72%
    09:00 +19°C° 0 mm 1 mps 693 mmHg 65%
    10:00 +20°C° 0 mm 2 mps 693 mmHg 58%
    11:00 +23°C° 0 mm 2 mps 693 mmHg 51%
    12:00 +24°C° 0 mm 1 mps 693 mmHg 47%
    13:00 +24°C° 0 mm 1 mps 692 mmHg 43%
    14:00 +25°C° 0 mm 1 mps 692 mmHg 40%
    15:00 +25°C° 0.1 mm 1 mps 692 mmHg 42%
    16:00 +24°C° 0.1 mm 1 mps 691 mmHg 44%
    17:00 +23°C° 0.1 mm 1 mps 691 mmHg 47%
    18:00 +21°C° 0.2 mm 1 mps 690 mmHg 53%
    19:00 +20°C° 0.2 mm 1 mps 690 mmHg 58%
    20:00 +18°C° 0.2 mm 1 mps 690 mmHg 64%
    21:00 +16°C° 0.4 mm 1 mps 690 mmHg 68%
    22:00 +16°C° 0.4 mm 1 mps 690 mmHg 73%
    23:00 +15°C° 0.4 mm 1 mps 690 mmHg 77%

    28 April, Sunday

    Time Temperature Precipitation Wind Pressure Humidity
    00:00 +14°C° 0.2 mm 1 mps 690 mmHg 79%
    01:00 +13°C° 0.2 mm 1 mps 690 mmHg 82%
    02:00 +13°C° 0.2 mm 1 mps 690 mmHg 84%
    03:00 +12°C° 0 mm 1 mps 690 mmHg 87%
    04:00 +12°C° 0 mm 1 mps 690 mmHg 89%
    05:00 +10°C° 0 mm 2 mps 690 mmHg 92%
    06:00 +12°C° 0.1 mm 2 mps 690 mmHg 89%
    07:00 +12°C° 0.1 mm 2 mps 690 mmHg 87%
    08:00 +12°C° 0.1 mm 3 mps 690 mmHg 85%
    09:00 +12°C° 0.1 mm 3 mps 690 mmHg 79%
    10:00 +13°C° 0.1 mm 3 mps 690 mmHg 73%
    11:00 +14°C° 0.1 mm 3 mps 690 mmHg 67%
    12:00 +15°C° 0.4 mm 4 mps 690 mmHg 64%
    13:00 +15°C° 0.4 mm 4 mps 690 mmHg 61%
    14:00 +17°C° 0.4 mm 4 mps 690 mmHg 58%
    15:00 +15°C° 0.4 mm 4 mps 689 mmHg 58%
    16:00 +15°C° 0.4 mm 4 mps 689 mmHg 58%
    17:00 +15°C° 0.4 mm 4 mps 689 mmHg 59%
    18:00 +13°C° 0.1 mm 3 mps 689 mmHg 63%
    19:00 +13°C° 0.1 mm 2 mps 689 mmHg 68%
    20:00 +10°C° 0.1 mm 2 mps 689 mmHg 72%
    21:00 +10°C° 0 mm 1 mps 689 mmHg 75%
    22:00 +9°C° 0 mm 1 mps 689 mmHg 77%
    23:00 +9°C° 0 mm 1 mps 690 mmHg 79%
    Show more